Other Public Products
Issued by NWS Grand Forks, ND

Home | Current Version | Previous Version | Text Only | Print | Product List | Glossary On
Versions: 1 2 3 4 5 6 7 8 9 10 11 12 13 14 15 16 17 18 19 20 21 22 23 24 25 26 27 28 29 30 31 32 33 34 35 36 37 38 39 40 41 42 43 44 45 46 47 48 49 50
000
FPUS83 KFGF 042031
OPUFGF
PRAIRIE TO PINES WEATHER ROUNDUP
NATIONAL WEATHER SERVICE EASTERN NORTH DAKOTA/GRAND FORKS ND
200 PM CST SUN DEC 04 2016

 **SATELLITE DATA USED TO AUGMENT SKY COVER AT AUTOMATED STATIONS**
 *****  WEATHER ACROSS EASTERN NORTH DAKOTA  *****

CITY           SKY/WX    TMP DP  RH WIND       PRES   REMARKS
GRAND FORKS    CLOUDY    32  28  85 W14       29.64F WCI  22
GRAND FORKS AF FLURRIES  31  28  87 W13       29.64F WCI  22
GRAND CITY NWS   N/A     32 N/A N/A NW9         N/A  WCI  24
BUXTON           N/A     45  44  93 W13         N/A
DEVILS LAKE    CLOUDY    28  25  86 W17       29.64F WCI  16
FARGO          PTSUNNY   35  30  82 W9        29.68F
WAHPETON ARPT  CLOUDY    34  32  93 NW9       29.72R
$$

 *****  WEATHER ACROSS CENTRAL AND WESTERN NORTH DAKOTA  *****

CITY           SKY/WX    TMP DP  RH WIND       PRES   REMARKS
JAMESTOWN      CLOUDY    34  29  82 W13       29.67F WCI  25
BISMARCK       SUNNY     32  22  66 W14       29.72F WCI  22
MINOT          SUNNY     29  22  75 W9        29.65F WCI  20
MINOT AFB      SUNNY     26  22  83 NW6       29.65F WCI  19
GARRISON         N/A     29  23  78 W10       29.67F WCI  20
WILLISTON      SUNNY     31  22  69 SW6       29.66F
DICKINSON      SUNNY     29  22  75 W10       29.65F WCI  20
HETTINGER      SUNNY     36  25  64 W10       29.71F
$$

 *****  OTHER OBSERVATIONS NORTHEAST NORTH DAKOTA  *****

CITY           SKY/WX    TMP DP  RH WIND       PRES   REMARKS
WALHALLA       MIX PCPN  32  32 100 W12       29.59F WCI  23
LANGDON        CLOUDY    30  28  93 W21       29.59S WCI  17
CAVALIER       LGT SNOW  32  28  86 W13       29.60F WCI  22
GRAFTON        LGT SNOW  32  32 100 W12       29.64F WCI  23
CANDO          CLOUDY    27  27 100 W21       29.65F WCI  13
FORT TOTTEN    NOT AVBL
ROLLA          CLOUDY    27  25  93 NW10      29.61S WCI  17
RUGBY            N/A     25  25 100 NW16      29.64F WCI  12
 ***** THE ABOVE OBSERVATIONS ARE NON NWS ARE NOT QUALITY
        CONTROLLED AND MAY MIS-REPORT RAIN FOR SNOW...
$$

 *****  OTHER OBSERVATIONS SOUTHEAST NORTH DAKOTA *****

CITY           SKY/WX    TMP DP  RH WIND       PRES   REMARKS
COOPERSTOWN    CLOUDY    32  28  86 W14G22    29.65F WCI  22
VALLEY CITY    CLOUDY    32  32 100 NW14G21   29.69S WCI  22
OAKES          NOT AVBL
GWINNER        CLOUDY    37  34  87 W13G18    29.70F
SHEYENNE NWR     N/A     36  29  76 W10       29.95S
BUFFALO          N/A     33  24  70 W18         N/A  WCI  21
WYNDMERE         N/A     36  32  87 W10         N/A
 ***** THE ABOVE OBSERVATIONS ARE NON NWS ARE NOT QUALITY
       CONTROLLED AND MAY MIS-REPORT RAIN FOR SNOW...
$$

  *****  WEATHER ACROSS NORTHERN MINNESOTA  *****

CITY           SKY/WX    TMP DP  RH WIND       PRES   REMARKS
FLAG ISLAND    LGT SNOW  30  30 100 SE16      29.61F WCI  19
WARROAD        CLOUDY    34  28  80 S8        29.61F
ROSEAU         CLOUDY    34  30  86 S10       29.60F FOG
HALLOCK        CLOUDY    32  30  93 CALM      29.60F FOG
THF RVR FALLS  CLOUDY    30  27  86 W14       29.64S WCI  20
HALSTAD          N/A     33  28  84 W9          N/A
FOSSTON        MIX PCPN  30  30 100 SW15      29.64F WCI  19
BAUDETTE       CLOUDY    32  30  92 SE10      29.63F WCI  24
WASKISH        LGT SNOW  34  30  86 SE7       29.65F
CROOKSTON      CLOUDY    30  30 100 W10       29.66F WCI  21
$$
  *****  WEATHER ACROSS CENTRAL AND WEST MINNESOTA  *****

CITY           SKY/WX    TMP DP  RH WIND       PRES   REMARKS
BEMIDJI        LGT SNOW  32  31  96 S6        29.63F
PARK RAPIDS    LGT SNOW  33  30  88 SW8       29.65S VSB 3/4
WADENA         CLOUDY    32  30  93 W9G18     29.66F FOG     WCI  24
DETROIT LAKES  CLOUDY    32  32 100 W8        29.66F FOG     WCI  25
MOORHEAD       RAIN      34  30  86 W9        29.70S
FERGUS FALLS   CLOUDY    34  34 100 W13G18    29.74S WCI  25
ELBOW LAKE     CLOUDY    33  32  96 SW14G21   29.71S WCI  23
MORRIS MN      PTSUNNY   36  34  93 W12       29.71F
STAPLES        LGT SNOW  32  30  93 SW7       29.67F
WHEATON        CLOUDY   N/A N/A N/A W14       29.74F
$$
  *****  WEATHER ELSEWHERE ACROSS MINNESOTA  *****

CITY           SKY/WX    TMP DP  RH WIND       PRES   REMARKS
DULUTH         CLOUDY    31  29  92 S9        29.74F FOG     WCI  23
INTRNTL FALLS  LGT SNOW  32  28  85 SE7       29.68F FOG
ELY            LGT SNOW  30  28  93 S8        29.73F WCI  23
CLOQUET        CLOUDY    30  28  93 SE7       29.72F WCI  23
BRAINERD       CLOUDY    32  31  96 S8        29.69F FOG     WCI  25
HIBBING        LGT SNOW  30  28  92 SE10      29.71F FOG     WCI  21
ALEXANDRIA     CLOUDY    34  32  92 W10       29.70F
SAINT CLOUD    CLOUDY    34  33  96 S10       29.72F
MINNEAPOLIS    CLOUDY    36  31  82 S9        29.77F
$$

  *****  WEATHER ACROSS SOUTH DAKOTA  *****

CITY           SKY/WX    TMP DP  RH WIND       PRES   REMARKS
SIOUX FALLS    SUNNY     43  33  68 W12       29.81F
BROOKINGS      SUNNY     39  32  76 W18       29.76F
WATERTOWN      MOSUNNY   35  29  78 W20       29.74F WCI  24
HURON          SUNNY     43  32  65 W12       29.79F
SISSETON         N/A     37  31  78 NW17      29.72F
ABERDEEN       SUNNY     41  30  65 W12       29.75F
MITCHELL       SUNNY     44  32  62 W9        29.82F
PIERRE         SUNNY     38  26  62 SW7       29.78F
MOBRIDGE       SUNNY     37  23  56 W5        29.73F
RAPID CITY     SUNNY     48  14  25 W3        29.74F
$$

  *****  SOME WEATHER IN NEARBY STATES *****

CITY           SKY/WX    TMP DP  RH WIND       PRES   REMARKS
GLASGOW MT     CLOUDY    40  28  62 S9        29.58F
GREAT FALLS MT SUNNY     41  24  51 SW28G38   29.50F
CHEYENNE WY    MOSUNNY   43  14  31 W17G26    29.85F
SCOTTSBLUFF NE SUNNY     47  14  26 W16       29.82F
OMAHA NE       SUNNY     40  33  76 S7        29.91F
DES MOINES IA  CLOUDY    39  35  86 W13       29.89F
DAVENPORT IA   LGT SNOW  32  30  92 SE6       29.92F VSB 1
CHICAGO IL     HVY SNOW  32  31  96 SE7       29.92F VSB 1/4
EAU CLAIRE WI  LGT SNOW  32  31  96 S10       29.81F FOG     WCI  24
LA CROSSE WI   LGT SNOW  34  31  88 S12       29.86F FOG
$$

  *****  SOME NATIONAL WEATHER *****

CITY           SKY/WX    TMP DP  RH WIND       PRES   REMARKS
LA GUARDIA NY  PTSUNNY   48  22  35 N6        30.19R
RALEIGH NC     CLOUDY    45  35  68 S3        30.22F
ATLANTA GA     LGT RAIN  45  45 100 E13       30.05F FOG
NEW ORLEANS LA LGT RAIN  63  63 100 NW12      29.89R FOG
OKLAHOMA CITY  MOSUNNY   53  39  59 N12       30.05F
ALBUQUERQUE NM SUNNY     45  13  27 VRB3      30.12F
SALT LAKE CITY PTSUNNY   39  20  46 SE15      30.03F
LOS ANGELES CA MOSUNNY   65  43  44 W8        30.05F
BOISE ID       CLOUDY    44  33  65 E12       29.86F
SEATTLE WA     MOSUNNY   42  37  82 SE6       30.06S
$$

*** WEATHER ACROSS MANITOBA...SASKATCHEWAN AND ONTARIO ***
                ***ONTARIO***

CITY           SKY/WX    TMP DP  RH WIND       PRES   REMARKS
GERALDTON      CLOUDY    27  23  86 E12G17    29.92F WCI  16
THUNDER BAY    LGT SNOW  30  30 100 E3        29.86F VSB 1
SIOUX LOOKOUT  FLURRIES  28  27  93 SE7       29.74F WCI  21
TORONTO        CLOUDY    36  28  75 E8        30.17F
BIG TROUT LK   CLOUDY    25  23  93 S10       29.84F WCI  15
PICKLE LAKE    CLOUDY    27  25  93 S8        29.81F WCI  18
DRYDEN         FLURRIES  30  28  93 SE12G18   29.69F WCI  21
KENORA         LGT SNOW  30  28  93 SE9       29.65F VSB 3/4 WCI  22
$$
                *** MANITOBA***

CITY           SKY/WX    TMP DP  RH WIND       PRES   REMARKS
BRANDON        FLURRIES  28  25  86 NW16      29.61F WCI  17
DAUPHIN        CLOUDY    30  28  93 NW6       29.61F WCI  24
ISLAND LAKE    LGT SNOW  25  23  93 SE12      29.73F WCI  14
PILOT MOUND      N/A     28  27  93 NW10G17     N/A  WCI  19
THE PAS        CLOUDY    28  23  80 S5        29.59F WCI  23
THOMPSON       FLURRIES  27  25  93 SE3       29.65F
WINNIPEG       LGT SNOW  32  32 100 S7        29.57F VSB 1
LYNN LAKE      FLURRIES  21  21 100 SE5       29.57F WCI  15
CHURCHILL      FLURRIES  12  12 100 S9        29.83F WCI   0
GILLAM         FLURRIES  23  21  93 S8        29.76F WCI  14
$$
                ***SASKATCHEWAN***

CITY           SKY/WX    TMP DP  RH WIND       PRES   REMARKS
ESTEVAN        MOSUNNY   23  14  68 S5        29.63F WCI  17
KINDERSLEY     PTSUNNY   25  19  80 N2        29.58F
LLOYDMINSTER   MOSUNNY   28  16  59 W14G21    29.54F WCI  17
PRINCE ALBERT  MOSUNNY   27  19  74 CALM      29.56F
REGINA         PTSUNNY   25  19  80 SE7       29.59F WCI  17
YORKTON        CLOUDY    25  23  93 W6        29.61F WCC1F1C2F2C3F3C4F4C5F5C6F6C7F7C8F8C9F9CaFaCbFbCcFcCdFdCe!



USA.gov is the U.S. government's official web portal to all federal, state and local government web resources and services.